Monroe, LA

4:23 PM CST on January 20, 2017 (GMT -0600)
Monroe Regional

Weather History for KMLU - October, 2012

Change the Weather History Date:

Wednesday, October 17, 2012

  Actual Average Record
Temperature  
Mean Temperature 69 °F 66 °F  
Max Temperature 83 °F 79 °F 92 °F (1935)
Min Temperature 55 °F 53 °F 33 °F (1952)
Degree Days  
Heating Degree Days 0 3  
Month to date heating degree days 34 28  
Since 1 July heating degree days 35 34  
Cooling Degree Days 4 3  
Month to date cooling degree days 59 85  
Year to date cooling degree days 2728 2449  
Growing Degree Days 18 (Base 50)    
Moisture  
Dew Point 64 °F    
Average Humidity 76    
Maximum Humidity 93    
Minimum Humidity 58    
Precipitation  
Precipitation 0.49 in 0.17 in 1.12 in (1966)
Month to date precipitation 1.46 2.52  
Year to date precipitation 50.11 41.63  
Snow  
Snow 0.00 in - - ()
Month to date snowfall 0.0  
Since 1 July snowfall 0.0  
Since 1 September snowfall 0.0  
Snow Depth 0.00 in    
Sea Level Pressure  
Sea Level Pressure 29.71 in    
Wind  
Wind Speed 9 mph (SSW)    
Max Wind Speed 28 mph    
Max Gust Speed 45 mph    
Visibility 9 miles    
Events Rain , Thunderstorm    
T = Trace of Precipitation, MM = Missing Value Source: NWS Daily Summary

Daily Weather History Graph

Daily Weather History Graph

Search for Another Location

Airport or City:

Trip Planner

Search our weather history database for the weather conditions in past years. The results will help you decide how hot, cold, wet, or windy it might be!

Date:

Astronomy

Oct. 17, 2012 Rise Set
Actual Time 7:13 AM CDT 6:32 PM CDT
Civil Twilight 6:49 AM CDT 6:57 PM CDT
Nautical Twilight 6:20 AM CDT 7:25 PM CDT
Astronomical Twilight 5:51 AM CDT 7:54 PM CDT
Moon 9:38 AM CDT (10/17) 8:19 PM CDT (10/17)
Length of Visible Light 12h 08m
Length of Day
11h 18m
Waxing Crescent, 7% of the Moon is Illuminated
Oct 17
Waxing Crescent
Oct 21
First Quarter
Oct 29
Full
Nov 6
Last Quarter
Nov 13
New

Hourly Weather History & Observations

Time (CDT) Temp. Heat Index Dew Point Humidity Pressure Visibility Wind Dir Wind Speed Gust Speed Precip Events Conditions
12:13 AM 55.4 °F - 55.4 °F 100% 29.84 in 1.5 mi Calm Calm - N/A   Clear
12:32 AM 55.4 °F - 53.6 °F 94% 29.83 in 10.0 mi Calm Calm - N/A   Clear
12:53 AM 55.9 °F - 54.0 °F 93% 29.83 in 10.0 mi Calm Calm - N/A   Scattered Clouds
1:53 AM 59.0 °F - 55.9 °F 90% 29.81 in 10.0 mi South 5.8 mph - N/A   Clear
2:53 AM 57.9 °F - 55.9 °F 93% 29.82 in 10.0 mi Calm Calm - N/A   Clear
3:53 AM 57.9 °F - 55.9 °F 93% 29.81 in 10.0 mi SSE 5.8 mph - N/A   Clear
4:53 AM 59.0 °F - 55.9 °F 90% 29.81 in 10.0 mi SSE 5.8 mph - N/A   Clear
5:53 AM 59.0 °F - 55.9 °F 90% 29.81 in 10.0 mi SSE 5.8 mph - N/A   Clear
6:53 AM 59.0 °F - 57.0 °F 93% 29.79 in 10.0 mi SSE 5.8 mph - N/A   Clear
7:53 AM 60.1 °F - 57.0 °F 90% 29.78 in 10.0 mi South 5.8 mph - N/A   Clear
8:53 AM 64.0 °F - 60.1 °F 87% 29.79 in 10.0 mi South 6.9 mph - N/A   Clear
9:53 AM 70.0 °F - 63.0 °F 78% 29.78 in 10.0 mi SSW 11.5 mph - 0.01 in   Scattered Clouds
10:53 AM 75.0 °F - 63.0 °F 66% 29.77 in 10.0 mi South 10.4 mph 18.4 mph N/A   Mostly Cloudy
11:53 AM 77.0 °F - 62.1 °F 60% 29.75 in 10.0 mi SSW 13.8 mph 21.9 mph N/A   Overcast
12:53 PM 80.1 °F 81.7 °F 64.0 °F 58% 29.73 in 10.0 mi SW 13.8 mph 21.9 mph 0.02 in   Scattered Clouds
1:53 PM 81.0 °F 83.0 °F 66.0 °F 60% 29.68 in 10.0 mi SSW 17.3 mph 23.0 mph N/A   Mostly Cloudy
2:53 PM 82.9 °F 85.4 °F 66.9 °F 58% 29.65 in 10.0 mi SSW 13.8 mph 21.9 mph N/A   Mostly Cloudy
3:53 PM 82.9 °F 85.4 °F 66.9 °F 58% 29.63 in 10.0 mi South 11.5 mph 23.0 mph N/A   Mostly Cloudy
4:53 PM 82.0 °F 84.5 °F 66.9 °F 60% 29.62 in 10.0 mi South 13.8 mph 20.7 mph N/A   Scattered Clouds
5:53 PM 81.0 °F 83.8 °F 68.0 °F 65% 29.62 in 10.0 mi South 10.4 mph 18.4 mph N/A   Clear
6:53 PM 78.1 °F - 68.0 °F 71% 29.60 in 10.0 mi South 11.5 mph - N/A   Clear
7:53 PM 78.1 °F - 68.0 °F 71% 29.62 in 10.0 mi South 11.5 mph - N/A   Mostly Cloudy
8:53 PM 77.0 °F - 69.1 °F 76% 29.62 in 10.0 mi South 11.5 mph 21.9 mph N/A   Partly Cloudy
9:36 PM 77.0 °F - 69.8 °F 78% 29.62 in 10.0 mi SSW 18.4 mph 26.5 mph 0.00 in Rain , Thunderstorm Light Rain
9:45 PM 75.2 °F - 71.6 °F 89% 29.63 in 6.0 mi SW 13.8 mph 27.6 mph 0.01 in Rain , Thunderstorm Thunderstorms and Rain
9:53 PM 75.0 °F - 71.1 °F 87% 29.65 in 3.0 mi SW 15.0 mph 23.0 mph 0.06 in Rain , Thunderstorm Heavy Thunderstorms and Rain
9:57 PM 73.4 °F - 69.8 °F 88% 29.66 in 1.0 mi SW 27.6 mph 44.9 mph 0.23 in Rain , Thunderstorm Heavy Thunderstorms and Rain
10:04 PM 71.6 °F - 66.2 °F 83% 29.65 in 0.8 mi SE 4.6 mph 44.9 mph 0.38 in Rain , Thunderstorm Thunderstorms and Rain
10:09 PM 73.4 °F - 66.2 °F 78% 29.66 in 3.0 mi West 8.1 mph - 0.38 in Rain , Thunderstorm Light Thunderstorms and Rain
10:41 PM 75.2 °F - 71.6 °F 89% 29.65 in 10.0 mi SW 10.4 mph - 0.38 in   Mostly Cloudy
10:53 PM 75.0 °F - 71.1 °F 87% 29.66 in 10.0 mi SW 9.2 mph - 0.38 in Rain Light Rain
11:08 PM 75.2 °F - 71.6 °F 89% 29.70 in 8.0 mi WSW 13.8 mph - 0.01 in Rain , Thunderstorm Light Rain
11:21 PM 73.4 °F - 69.8 °F 88% 29.69 in 10.0 mi WSW 18.4 mph 27.6 mph 0.02 in Thunderstorm Mostly Cloudy
11:38 PM 71.6 °F - 66.2 °F 83% 29.70 in 10.0 mi West 9.2 mph - 0.02 in   Clear
11:53 PM 69.1 °F - 64.0 °F 84% 29.70 in 10.0 mi WSW 6.9 mph - 0.02 in   Clear